TimeHST,TemperatureF,Dew PointF,Humidity,Sea Level PressureIn,VisibilityMPH,Wind Direction,Wind SpeedMPH,Gust SpeedMPH,PrecipitationIn,Events,Conditions,WindDirDegrees,DateUTC
12:53 AM,79.0,60.1,52,29.94,10.0,ENE,16.1,-,N/A,,Clear,60,2013-09-19 10:53:00
1:53 AM,79.0,61.0,54,29.92,10.0,ENE,19.6,-,N/A,,Clear,60,2013-09-19 11:53:00
2:53 AM,79.0,62.1,56,29.93,10.0,ENE,15.0,-,N/A,,Clear,60,2013-09-19 12:53:00
3:53 AM,78.1,60.1,54,29.91,10.0,NE,11.5,-,N/A,,Clear,50,2013-09-19 13:53:00
4:53 AM,78.1,60.1,54,29.92,10.0,ENE,10.4,-,N/A,,Clear,60,2013-09-19 14:53:00
5:53 AM,77.0,59.0,54,29.93,10.0,NNE,10.4,-,N/A,,Clear,20,2013-09-19 15:53:00
6:53 AM,78.1,59.0,52,29.95,10.0,Calm,Calm,-,N/A,,Clear,0,2013-09-19 16:53:00
7:53 AM,82.0,64.0,54,29.97,10.0,Calm,Calm,-,N/A,,Clear,0,2013-09-19 17:53:00
8:53 AM,84.9,64.0,49,29.99,10.0,SW,8.1,17.3,N/A,,Clear,220,2013-09-19 18:53:00
9:53 AM,82.9,64.9,54,29.99,10.0,West,8.1,-,N/A,,Clear,280,2013-09-19 19:53:00
10:53 AM,84.0,66.0,55,30.00,10.0,Calm,Calm,-,N/A,,Clear,0,2013-09-19 20:53:00
11:53 AM,86.0,66.9,53,29.97,10.0,SSW,9.2,-,N/A,,Partly Cloudy,200,2013-09-19 21:53:00
12:53 PM,86.0,66.9,53,29.96,10.0,SW,8.1,-,N/A,,Clear,220,2013-09-19 22:53:00
1:53 PM,86.0,68.0,55,29.94,10.0,SW,10.4,-,N/A,,Partly Cloudy,230,2013-09-19 23:53:00
2:53 PM,84.9,66.9,55,29.94,10.0,SW,9.2,-,N/A,,Mostly Cloudy,230,2013-09-20 00:53:00
3:53 PM,84.9,66.9,55,29.94,10.0,SSW,11.5,-,N/A,,Overcast,200,2013-09-20 01:53:00
4:53 PM,84.0,66.9,56,29.94,10.0,South,11.5,-,N/A,,Overcast,190,2013-09-20 02:53:00
5:53 PM,82.0,66.9,60,29.96,10.0,South,12.7,-,N/A,,Clear,170,2013-09-20 03:53:00
6:53 PM,82.0,66.9,60,29.97,10.0,South,11.5,-,N/A,,Clear,170,2013-09-20 04:53:00
7:53 PM,81.0,68.0,65,29.99,10.0,SE,5.8,-,N/A,,Clear,130,2013-09-20 05:53:00
8:53 PM,80.1,66.9,64,30.01,10.0,Calm,Calm,-,N/A,,Partly Cloudy,0,2013-09-20 06:53:00
9:53 PM,81.0,60.1,49,30.01,10.0,ENE,11.5,-,N/A,,Clear,70,2013-09-20 07:53:00
10:53 PM,79.0,61.0,54,30.01,10.0,NE,12.7,-,N/A,,Clear,40,2013-09-20 08:53:00
11:45 PM,80.6,60.8,51,30.00,10.0,ENE,15.0,26.5,N/A,,Clear,60,2013-09-20 09:45:00
11:53 PM,80.1,61.0,52,30.00,10.0,ENE,13.8,25.3,N/A,,Clear,60,2013-09-20 09:53:00